Starlink 11466

operational
NORAD ID: 62220 Int'l Des: 2024-231 Owner: SPXS Country: US Constellation: starlink
LEOCIRCULAR

About Starlink 11466

Description loading...

Live Position

Loading 3D Globe...

Upcoming Passes

Altitude History

Altitude vs Time

uPlot chart will show altitude changes over time

Two-Line Element Set

1 62220U 24231C 25353.87769775 .00157518 00000-0 12781-2 0 9996
2 62220 53.1571 134.8949 0000281 60.6686 299.4360 15.69754508 60871
Epoch: Dec 19, 2025 • Age: 15 hours

Current Status

Altitude 365.3 km
Velocity 7.69 km/s
Sub-Earth Point -21.76°S, 64.44°E
Launch Date Dec 5, 2024
Age 1 years
Type internet

Technical Details

Classification Payload
Mass 960.00 kg
Dry Mass 910.00 kg
Total Mass 960.00 kg
Length 0.30 m
Diameter 4.10 m
Span 29.00 m
Shape Box + pan
Manufacturer SPXS
Bus Type Starlink V2MD
Phase Status In Orbit
Owner/State SPXS/US

Large Constellations

Loading constellations...